All
Beauregard Rgnl Airport (De Ridder, LA) DRI Weather
|
De Ridder, LA (KDRI)
Clear skies
Light winds |
|
77 °F |
There is no TAF data available at DRI or any nearby airports.
Recent DRI METAR history
| Date | Time (CDT) | Flight Rules | Wind Dir. | Speed | Type | Height AGL (ft) | Visibility | Temp (°C) | Temp (°F) | Dew Point (°C) | Dew Point (°F) | Rel. Humid. | Pressure | Density Altitude | Remarks |
|---|---|---|---|---|---|---|---|---|---|---|---|---|---|---|---|
| 05-May | 11:55AM | VFR | 190° | 9 kt | 10 miles | 25° | 77° | 22° | 71° | 81% | 29.84 in Hg | 1,481 ft | |||
| 05-May | 11:35AM | VFR | 200° | 10 kt | 10 miles | 25° | 77° | 22° | 71° | 82% | 29.84 in Hg | 1,481 ft | |||
| 05-May | 11:15AM | VFR | 200° | 11 kt | 10 miles | 25° | 77° | 22° | 71° | 82% | 29.85 in Hg | 1,471 ft | |||
| 05-May | 10:55AM | VFR | 180° | 11 kt | 10 miles | 25° | 77° | 22° | 71° | 80% | 29.84 in Hg | 1,481 ft | |||
| 05-May | 10:35AM | VFR | 200° | 12 kt | 10 miles | 25° | 77° | 22° | 71° | 81% | 29.84 in Hg | 1,481 ft | |||
| 05-May | 10:15AM | VFR | 180° | 10 kt | 10 miles | 24° | 75° | 21° | 69° | 84% | 29.84 in Hg | 1,361 ft | |||
| 05-May | 09:55AM | VFR | 190° | 10 kt | 10 miles | 24° | 75° | 22° | 71° | 88% | 29.85 in Hg | 1,351 ft | |||
| 05-May | 09:35AM | VFR | 190° | 8 kt | 10 miles | 23° | 73° | 21° | 69° | 89% | 29.85 in Hg | 1,231 ft | |||
| 05-May | 09:15AM | VFR | 190° | 7 kt | 10 miles | 23° | 73° | 21° | 69° | 92% | 29.85 in Hg | 1,231 ft | |||
| 05-May | 08:55AM | VFR | 180° | 9 kt | 10 miles | 22° | 71° | 21° | 69° | 92% | 29.84 in Hg | 1,121 ft | |||
| 05-May | 08:35AM | VFR | 170° | 7 kt | 10 miles | 22° | 71° | 21° | 69° | 92% | 29.84 in Hg | 1,121 ft | |||
| 05-May | 08:15AM | VFR | 160° | 7 kt | 10 miles | 21° | 69° | 20° | 68° | 94% | 29.83 in Hg | 1,011 ft | |||
| 05-May | 07:55AM | VFR | 170° | 6 kt | 10 miles | 21° | 69° | 20° | 68° | 95% | 29.84 in Hg | 1,001 ft | |||
| 05-May | 07:35AM | VFR | 160° | 7 kt | 10 miles | 21° | 69° | 20° | 68° | 96% | 29.84 in Hg | 1,001 ft | |||
| 05-May | 07:15AM | VFR | 150° | 6 kt | 10 miles | 20° | 68° | 20° | 68° | 97% | 29.83 in Hg | 891 ft | |||
| 05-May | 06:55AM | VFR | 150° | 6 kt | 10 miles | 20° | 68° | 19° | 66° | 97% | 29.82 in Hg | 901 ft | |||
| 05-May | 06:35AM | VFR | 150° | 5 kt | 10 miles | 20° | 68° | 19° | 66° | 97% | 29.82 in Hg | 901 ft | |||
| 05-May | 06:15AM | VFR | 150° | 6 kt | 10 miles | 19° | 66° | 19° | 66° | 97% | 29.82 in Hg | 781 ft | |||
| 05-May | 05:55AM | VFR | 150° | 7 kt | 10 miles | 19° | 66° | 19° | 66° | 97% | 29.82 in Hg | 781 ft | |||
| 05-May | 05:35AM | VFR | 160° | 6 kt | 10 miles | 19° | 66° | 19° | 66° | 98% | 29.82 in Hg | 781 ft | |||
| 05-May | 05:15AM | VFR | 140° | 5 kt | 10 miles | 19° | 66° | 18° | 64° | 98% | 29.83 in Hg | 771 ft | |||
| 05-May | 04:55AM | VFR | 150° | 5 kt | 10 miles | 18° | 64° | 18° | 64° | 99% | 29.84 in Hg | 641 ft | |||
| 05-May | 04:35AM | VFR | 150° | 4 kt | 10 miles | 18° | 64° | 18° | 64° | 100% | 29.84 in Hg | 641 ft | |||
| 05-May | 04:15AM | VFR | 150° | 4 kt | 10 miles | 18° | 64° | 18° | 64° | 100% | 29.84 in Hg | 641 ft |
Login
| Your browser is unsupported. upgrade your browser |
